This is the latest recevied weather packets stored in our database for station/object KA8OAD-10. If no packets are shown the sender has not sent any weather packets the latest 10 day(s).
| Time | Temp. | Humidity | Pressure | Rain* | Wind** | Luminosity | Snow |
|---|---|---|---|---|---|---|---|
| 1778038352 | 10° C | 92% | 1007.1 hPa | 1.27 mm | - | 0 W/m² | - |
| 1778037751 | 10° C | 92% | 1007 hPa | 2.29 mm | - | 0 W/m² | - |
| 1778036552 | 10° C | 91% | 1007.6 hPa | 4.32 mm | - | 0 W/m² | - |
| 1778035951 | 10° C | 91% | 1007.7 hPa | 4.57 mm | - | 0 W/m² | - |
| 1778035651 | 10° C | 91% | 1007.6 hPa | 5.08 mm | - | 0 W/m² | - |
| 1778035051 | 10° C | 91% | 1007.7 hPa | 5.84 mm | - | 0 W/m² | - |
| 1778034753 | 10° C | 91% | 1007.7 hPa | 5.33 mm | - | 0 W/m² | - |
| 1778034453 | 10° C | 90% | 1007.2 hPa | 5.84 mm | - | 0 W/m² | - |
| 1778033852 | 10° C | 90% | 1007 hPa | 5.08 mm | - | 0 W/m² | - |
| 1778033251 | 10° C | 90% | 1006.7 hPa | 5.08 mm | - | 0 W/m² | - |
| 1778032650 | 10° C | 90% | 1007 hPa | 5.08 mm | - | 0 W/m² | - |
| 1778032349 | 10° C | 90% | 1006.8 hPa | 4.57 mm | - | 0 W/m² | - |
| 1778031452 | 10° C | 90% | 1006.8 hPa | 3.81 mm | - | 0 W/m² | - |
| 1778030851 | 10° C | 89% | 1006.7 hPa | 2.79 mm | - | 0 W/m² | - |
| 1778029351 | 10.56° C | 89% | 1006.4 hPa | 0.76 mm | - | 0 W/m² | - |
| 1778029051 | 10.56° C | 89% | 1006.4 hPa | 0.25 mm | - | 0 W/m² | - |
| 1778026951 | 11.11° C | 87% | 1006.4 hPa | 1.78 mm | - | 0 W/m² | - |
| 1778026050 | 11.67° C | 87% | 1006.2 hPa | 4.32 mm | - | 0 W/m² | - |
| 1778025753 | 12.22° C | 87% | 1006.3 hPa | 5.84 mm | - | 0 W/m² | - |
| 1778025152 | 12.22° C | 86% | 1006.4 hPa | 7.87 mm | - | 0 W/m² | - |
| 1778024552 | 12.78° C | 86% | 1006.4 hPa | 7.62 mm | - | 0 W/m² | - |
| 1778022752 | 14.44° C | 85% | 1006.4 hPa | 5.08 mm | - | 0 W/m² | - |
| 1778022453 | 14.44° C | 86% | 1006.3 hPa | 3.81 mm | - | 0 W/m² | - |
| 1778022151 | 15° C | 86% | 1006.4 hPa | 1.78 mm | - | 0 W/m² | - |
| 1778020952 | 15.56° C | 87% | 1005.8 hPa | 0 mm | - | 12 W/m² | - |
* Rain latest hour (hover to see other rain measurements)
** Current wind speed in m/s (hover to see current wind gust speed)